Location: Madrid
(40.4167°N, 3.7036°W)
Time: 11:57:46
(UTC+00:00)

ISS - Pass Details

Date: 07 May 2025
Orbit: 416 x 419 km, 51.6° (Epoch: 14 May)

Event Time Altitude Azimuth Distance (km) Brightness Sun altitude
Rises 03:22:51 0° 312° (NW) 2,361 0.0 -17.5°
Reaches altitude 10° 03:25:06 10° 323° (NW) 1,495 -0.9 -17.2°
Maximum altitude 03:28:07 30° 27° (NNE) 780 -1.7 -16.7°
Drops below altitude 10° 03:31:07 10° 90° (E) 1,491 -0.3 -16.3°
Sets 03:33:22 0° 102° (ESE) 2,352 0.6 -16.0°
